Location: Waverly
(39.3325°N, 76.6061°W)
Time: 05:32:53
(UTC+00:00)

ARIANE 6 FM1 Upper Stage - Visible Passes

Search period start: 09 December 2025 00:00
Search period end: 19 December 2025 00:00
Orbit: 522 x 611 km, 62.0° (Epoch: 08 December)

Date Brightness Start Highest point End Pass type
(mag) Time Alt. Az. Time Alt. Az. Time Alt. Az.
10 Dec 6.2 11:19:37 10° SE 11:21:37 13° ESE 11:23:35 10° E visible
11 Dec 5.7 11:18:50 10° SSE 11:21:54 21° ESE 11:24:55 10° ENE visible
12 Dec 4.7 11:18:35 10° S 11:22:13 31° ESE 11:25:47 10° NE visible
13 Dec 3.7 11:18:37 10° SSW 11:22:33 49° ESE 11:26:25 10° NE visible
14 Dec 2.7 11:18:51 10° SSW 11:22:55 79° SE 11:26:55 10° NE visible
15 Dec 6.0 09:43:53 10° SE 09:44:48 11° ESE 09:45:43 10° E visible
15 Dec 2.5 11:19:16 10° SW 11:23:19 67° NW 11:27:17 10° NNE visible
16 Dec 5.4 09:42:23 10° SSE 09:45:01 17° ESE 09:47:38 10° ENE visible
16 Dec 2.9 11:19:51 10° WSW 11:23:44 43° NW 11:27:33 10° NNE visible
17 Dec 4.7 09:44:04 22° SE 09:45:16 25° ESE 09:48:36 10° ENE visible
17 Dec 3.4 11:20:36 10° WSW 11:24:11 30° NW 11:27:43 10° NNE visible
18 Dec 4.2 09:46:34 33° E 09:46:34 33° E 09:49:18 10° NE visible
18 Dec 3.9 11:22:42 15° W 11:24:41 21° NW 11:27:47 10° N visible
